Location: Newark
(48.5667°N, 12.8167°E)
Time: 18:17:54
(UTC+00:00)

N. Korean satellite - Visible Passes

Search period start: 14 October 2019 00:00
Search period end: 24 October 2019 00:00
Orbit: 455 x 508 km, 97.2° (Epoch: 14 October)

Date Brightness Start Highest point End Pass type
(mag) Time Alt. Az. Time Alt. Az. Time Alt. Az.
14 Oct 9.9 04:13:46 10° NE 04:16:12 17° E 04:18:40 10° SE visible
16 Oct 7.6 04:55:43 10° NNE 04:59:14 53° E 05:02:46 10° S visible
16 Oct 9.9 17:09:22 10° SW 17:11:43 17° W 17:14:05 10° NW visible
17 Oct 9.1 04:30:45 10° NE 04:33:50 27° E 04:36:58 10° SSE visible
17 Oct 8.6 16:43:08 10° SSW 16:46:15 33° W 16:49:25 10° NNW visible
18 Oct 10.1 04:06:17 10° NE 04:08:22 15° E 04:10:28 10° SE visible
19 Oct 10.4 17:28:19 10° WSW 17:29:22 11° W 17:30:25 10° WNW visible
20 Oct 8.1 04:47:57 10° NNE 04:51:25 43° E 04:54:55 10° S visible
20 Oct 9.6 17:01:10 10° SW 17:03:50 21° W 17:06:32 10° NW visible
21 Oct 9.4 04:23:04 10° NE 04:26:00 23° E 04:28:57 10° SSE visible
22 Oct 10.3 03:58:54 10° ENE 04:00:29 12° E 04:02:05 10° ESE visible
23 Oct 7.0 05:05:18 10° NNE 05:08:56 72° ESE 05:12:36 10° S visible
23 Oct 10.1 17:19:38 10° WSW 17:21:27 14° W 17:23:16 10° WNW visible
